Regional Weather Roundup
Issued by NWS Newport/Morehead, NC

Current Version | Previous Version | Text Only | Print | Product List | Glossary On
Versions: 1 2 3 4 5 6 7 8 9 10 11 12 13 14 15 16 17 18 19 20 21 22 23 24 25 26 27 28 29 30 31 32 33 34 35 36 37 38 39 40 41 42 43 44 45 46 47 48 49 50
000
ASUS42 KMHX 230414
RWRMHX
WEATHER ROUNDUP FOR EASTERN NORTH CAROLINA
NATIONAL WEATHER SERVICE NEWPORT/MOREHEAD CITY NC
1100 PM EST THU FEB 22 2018

NOTE: "FAIR" INDICATES FEW OR NO CLOUDS BELOW 12,000 FEET
WITH NO SIGNIFICANT WEATHER AND/OR OBSTRUCTIONS TO VISIBILITY

NCZ015>017-031-032-045>047-102-103-230500-
NORTH COAST

CITY           SKY/WX    TMP DP  RH WIND       PRES   REMARKS
EDENTON        NOT AVBL
ELIZABETH CITY CLOUDY    48  48 100 NE14      30.51R FOG
KITTY HAWK     FOG      N/A N/A N/A N6G16     30.49R VSB 3/4
MANTEO         CLOUDY    48  48  99 NE15G22   30.50R FOG

$$

NCZ045>047-081-094-103-104-230500-
CENTRAL COAST

CITY           SKY/WX    TMP DP  RH WIND       PRES   REMARKS
FRISCO         FAIR      64  63  96 SW3       30.46F

$$

NCZ095-097-098-100-101-230500-
SOUTHERN COAST

CITY           SKY/WX    TMP DP  RH WIND       PRES   REMARKS
BEAUFORT       FAIR      62  61  96 S5        30.46S
CEDAR ISLAND   NOT AVBL
JACKSONVILLE   FAIR      64  61  90 CALM      30.45R
PINEY ISLAND   NOT AVBL
WILMINGTON     FAIR      63  61  93 S3        30.45S


$$

NCZ011>013-027>030-043-044-078>080-089-090>093-098-230500-
COASTAL PLAIN

CITY           SKY/WX    TMP DP  RH WIND       PRES   REMARKS
AHOSKIE        CLOUDY    53  51  94 N9        30.50R
CLINTON        FAIR      63  62  96 CALM      30.45S
ELIZABETHTOWN  NOT AVBL
GOLDSBORO      FAIR      65  60  82 CALM      30.43R
GREENVILLE     FAIR      61  61 100 CALM      30.45S
HAVELOCK       CLEAR     61  61 100 CALM      30.47R
KENANSVILLE    FAIR      61  59  94 CALM      30.45S
KINSTON        FAIR      62  60  93 CALM      30.46R
NEW BERN       FAIR      61  59  93 CALM      30.47R
RICHLANDS      FAIR      61  60  97 S3        30.46S
ROCKY MOUNT    CLOUDY    60  58  92 CALM      30.45S
WASHINGTON     CLOUDY    66  61  84 CALM      30.46S
WHITEVILLE     FAIR      61  59  92 CALM      30.44S

$$

AMZ130-135-150-152-154-156-158-170-250-252-270-ANZ085-086-088-633-658-670-230500-
MARINE OBSERVATIONS

STATION/POSITION TIME  TEMP    WIND        PRES    WAVE   SWELL
                       AIR SEA DIR/SP/G            HT/PER HT/PER
                 (UTC) (F)     (DEG/KT/KT) (MB)    (FT/S) (FT/S)
CHESAPEAKE LIGHT NOT AVBL
64 E VA BEACH    0350   51 51   20/ 12/ 14 1032.3    3/14   2/14
DUCK             0348      46   10/ 14/ 16 1032.3
2 E DUCK         0400      46                N/A     4/15   2/15
OREGON INLET     0342   54 66  340/ 10/ 13 1032.0
13E OREGON INLT  0348      51                N/A     4/13   3/13
HATTERAS CG      0348   65 62  200/  2/  5 1031.5
DIAMOND BUOY     0400   73     210/ 10/ 14 1031.7
CAPE LOOKOUT     0400          180/  5/  5 1031.8
BEAUFORT LAB     0348   61 61  180/  2/  3 1031.6
30 SE NEW RVR IN 0308   70 70  190/  6/  8 1031.3
30 SE NEW RVR IN 0400      71                N/A     4/ 9   2/15
27 SE WRIGHTSVLE 0308   70 69  190/ 10/ 12 1031.3
5 SE WRIGHTSVLE  0308   63 60  180/  4/  8 1031.0
225 S CAPE HAT   0350   72 73  130/  8/ 10 1032.0    5/ 9   5/ 9
41 SE CHARLESTON 0400   69      90/  4/  4 1030.5

$$




USA.gov is the U.S. government's official web portal to all federal, state and local government web resources and services.